Weather History for PFNO - August, 2014

Change the Weather History Date:

Friday, August 15, 2014

  Actual Average Record
Temperature  
Mean Temperature 62 °F -  
Max Temperature 72 °F - - ()
Min Temperature 54 °F - - ()
Degree Days  
Heating Degree Days 2    
Growing Degree Days 12 (Base 50)    
Moisture  
Dew Point 53 °F    
Average Humidity 71    
Maximum Humidity 96    
Minimum Humidity 49    
Precipitation  
Precipitation 0.09 in - - ()
Sea Level Pressure  
Sea Level Pressure 29.53 in    
Wind  
Wind Speed 11 mph (ENE)    
Max Wind Speed 16 mph    
Max Gust Speed 24 mph    
Visibility 6 miles    
Events Rain    
T = Trace of Precipitation, MM = Missing Value Source: NWS Daily Summary

Daily Weather History Graph

Daily Weather History Graph

Search for Another Location

Airport or City:

Trip Planner

Search our weather history database for the weather conditions in past years. The results will help you decide how hot, cold, wet, or windy it might be!

Date:

Astronomy

Aug. 15, 2014 Rise Set
Actual Time 6:15 AM AKDT 11:18 PM AKDT
Civil Twilight 4:53 AM AKDT 12:38 AM AKDT
Nautical Twilight Sun does not set Sun does not set
Astronomical Twilight Sun does not set Sun does not set
Moon 11:24 PM AKDT (8/15) 3:10 PM AKDT (8/15)
Length of Visible Light 19h 44m
Length of Day
17h 02m
Waning Gibbous, 68% of the Moon is Illuminated
Aug 15
Waning Gibbous
Aug 17
Last Quarter
Aug 25
New
Sep 2
First Quarter
Sep 8
Full

Hourly Weather History & Observations

Time (AKDT) Temp. Dew Point Humidity Pressure Visibility Wind Dir Wind Speed Gust Speed Precip Events Conditions
12:58 AM 55.9 °F 54.0 °F 93% 29.61 in 8.0 mi ENE 11.5 mph - N/A   Clear
1:58 AM 55.0 °F 54.0 °F 96% 29.61 in 7.0 mi NE 10.4 mph - N/A   Clear
3:58 AM 55.0 °F 53.1 °F 93% 29.60 in 8.0 mi ENE 12.7 mph - N/A   Clear
4:58 AM 54.0 °F 52.0 °F 93% 29.59 in 8.0 mi ENE 13.8 mph - N/A   Clear
5:58 AM 54.0 °F 51.1 °F 90% 29.59 in 6.0 mi ENE 12.7 mph - N/A   Clear
6:58 AM 55.0 °F 51.1 °F 86% 29.59 in 7.0 mi ENE 10.4 mph - N/A   Clear
7:58 AM 55.0 °F 52.0 °F 89% 29.58 in 6.0 mi NE 4.6 mph - N/A   Clear
9:58 AM 60.1 °F 53.1 °F 78% 29.57 in 6.0 mi ENE 15.0 mph - N/A   Haze
10:58 AM 64.0 °F 54.0 °F 70% 29.55 in 6.0 mi ENE 16.1 mph - N/A   Haze
11:58 AM 64.9 °F 53.1 °F 65% 29.55 in 7.0 mi ENE 13.8 mph 24.2 mph N/A   Clear
12:58 PM 66.9 °F 53.1 °F 61% 29.54 in 6.0 mi ENE 15.0 mph - N/A   Haze
1:58 PM 69.1 °F 53.1 °F 57% 29.53 in 6.0 mi NE 13.8 mph - N/A   Haze
2:58 PM 69.1 °F 52.0 °F 54% 29.52 in 6.0 mi ENE 15.0 mph - N/A   Haze
3:58 PM 71.1 °F 52.0 °F 51% 29.51 in 7.0 mi East 9.2 mph - N/A   Partly Cloudy
4:58 PM 71.1 °F 52.0 °F 51% 29.49 in 6.0 mi East 9.2 mph - N/A   Haze
5:58 PM 71.1 °F 51.1 °F 49% 29.49 in 6.0 mi ENE 11.5 mph - N/A   Haze
6:58 PM 64.9 °F 53.1 °F 65% 29.49 in 6.0 mi SSW 3.5 mph - N/A   Haze
7:58 PM 71.1 °F 51.1 °F 49% 29.48 in 6.0 mi NNE 11.5 mph - N/A   Haze
8:58 PM 68.0 °F 54.0 °F 61% 29.47 in 6.0 mi North 8.1 mph - N/A   Haze
10:40 PM 62.6 °F 53.6 °F 72% 29.47 in 2.0 mi ESE 11.5 mph - 0.08 in Rain Heavy Rain
10:48 PM 62.6 °F 51.8 °F 68% 29.47 in 5.0 mi SE 4.6 mph - 0.09 in Rain Light Rain
10:58 PM 64.0 °F 51.1 °F 63% 29.48 in 7.0 mi Variable 4.6 mph - 0.09 in Rain Light Rain
11:58 PM 61.0 °F 54.0 °F 78% 29.48 in 7.0 mi NE 3.5 mph - 0.00 in   Overcast